Hourly Data Report for October 31, 2015

All times are specified in Local Standard Time (LST). Add 1 hour to adjust for Daylight Saving Time where and when it is observed.

CAPE DORSET A
NUNAVUT

64°13'49.000" N
76°31'30.000" W
48.20 m
2400637
71366
YTE

Download Data

Hourly Data (October 2015)
Hourly Data Report for October 31, 2015
Temp Definition
°C
Dew Point Temp Definition
°C
Rel Hum Definition
%
Wind Dir Definition
10's deg

Wind Spd Definition
km/h
Visibility Definition
km
Stn Press Definition
kPa
Hmdx Definition


Wind Chill Definition


Weather Definition


TIME
00:00 Legend Double Dagger -8.1 -12.3 72 36 18 16.1 100.21   -15 Snow
01:00 Legend Double Dagger -8.2 -10.8 82 34 13 14.5 100.28   -14 Snow
02:00 Legend Double Dagger -8.1 -11.9 74 34 17 16.1 100.33   -15 Snow
03:00 Legend Double Dagger -8.2 -11.9 75 31 17 16.1 100.37   -15 Snow
04:00 Legend Double Dagger -8.4 -12.6 72 30 22 16.1 100.40   -16 Snow
05:00 Legend Double Dagger -8.8 -12.2 77 31 17 16.1 100.44   -16 Snow
06:00 Legend Double Dagger -9.4 -12.2 80 31 21 16.1 100.50   -17 Snow
07:00 Legend Double Dagger -10.7 -13.3 81 34 21 16.1 100.57   -19 LegendNANA
08:00 Legend Double Dagger -10.6 -13.3 81 30 18 16.1 100.56   -18 Snow
09:00 Legend Double Dagger -9.8 -13.2 77 31 21 16.1 100.61   -18 Snow
10:00 Legend Double Dagger -9.9 -13.2 77 34 21 16.1 100.63   -18 Snow
11:00 Legend Double Dagger -9.8 -13.0 78 31 22 16.1 100.65   -18 Snow
12:00 Legend Double Dagger -9.7 -12.7 79 35 17 16.1 100.72   -17 Snow
13:00 Legend Double Dagger -10.1 -13.1 79 35 18 16.1 100.74   -18 Snow
14:00 Legend Double Dagger -10.2 -13.7 76 34 17 16.1 100.80   -17 Snow
15:00 Legend Double Dagger -10.4 -13.6 78 34 18 16.1 100.86   -18 Snow
16:00 Legend Double Dagger -10.3 -13.4 78 32 15 16.1 100.91   -17 Snow
17:00 Legend Double Dagger -10.4 -13.3 79 35 18 16.1 100.94   -18 Snow
18:00 Legend Double Dagger -10.1 -12.9 80 33 11 16.1 100.97   -16 Snow
19:00 Legend Double Dagger -10.0 -13.0 79 32 13 16.1 101.01   -16 Snow
20:00 Legend Double Dagger -9.9 -13.2 77 1 9 16.1 101.03   -15 Snow
21:00 Legend Double Dagger -10.0 -13.0 79 31 13 16.1 101.06   -16 Snow
22:00 Legend Double Dagger -10.0 -13.1 78 35 9 16.1 101.07   -15 Snow
23:00 Legend Double Dagger -10.1 -13.4 77 34 9 16.1 101.09   -15 Snow

Notes on Data Quality.

Legend

  • E = Estimated
  • M = Missing
  • NA = Not Available
  • ‡ = Partner data that is not subject to review by the National Climate Archives
Date modified: